Wenatchee, WA
on Friday, January 25, 2013

Friday
Previous Day Next Day
Daily Summary
 ActualAverageRecord
Temperature
Mean Temperature °F 29°F  
Max Temperature 37°F 34°F 56°F (1992)
Min Temperature 29°F 23°F 3°F (2008)
Degree Days
Heating Degree Days 32 36  
Month to date heating degree days 1078 944  
Since 1 July heating degree days 3741 4042  
Cooling Degree Days 0 0  
Month to date cooling degree days 0 0  
Year to date cooling degree days 0 0  
Moisture
Dew Point 20°F   
Average Humidity 83    
Maximum Humidity 93    
Minimum Humidity 72    
Precipitation
Precipitation 0.26 in 0.05 in 0.26 in (2013)
Month to date precipitation 1.30 1.58  
Year to date precipitation 1.30 1.58  
Snow
Snow 0.00 in 0.40 in in ()
Month to date snowfall 11.7 13.3  
Since 1 July snowfall 42.0 38.2  
Snow Depth 0.00 in   
Wind
Wind Speed 2 mph   
Max Wind Speed 6 mph   
Max Gust Speed mph   
Visibility 10 miles   
Events     

Key: T is trace of precipitation, MM is missing value
Source: NWS Daily Summary
Time(PST)TemperatureDew PointHumidity Pressure Visibility Wind DirectionWind SpeedGust SpeedPrecipitationEvents Conditions
12:55 AM 23.0°F 19.0°F 85% 30.19 in 10.0 miles NNW 3.5 mph - N/A   Clear
1:55 AM 21.9°F 18.0°F 85% 30.19 in 10.0 miles WNW 5.8 mph - N/A   Clear
2:55 AM 21.0°F 18.0°F 88% 30.18 in 10.0 miles NNW 3.5 mph - N/A   Partly Cloudy
3:55 AM 23.0°F 19.0°F 85% 30.16 in 10.0 miles NNW 4.6 mph - N/A   Partly Cloudy
4:04 AM 23.0°F 19.4°F 86% 30.11 in 10.0 miles NW 3.5 mph - N/A   Scattered Clouds
4:15 AM 23.0°F 19.4°F 86% 30.11 in 10.0 miles Calm Calm - N/A   Mostly Cloudy
4:55 AM 24.1°F 19.9°F 84% 30.15 in 10.0 miles Calm Calm - N/A   Overcast
5:51 AM 24.8°F 19.4°F 80% 30.10 in 10.0 miles Calm Calm - N/A   Overcast
5:55 AM 24.1°F 19.9°F 84% 30.15 in 10.0 miles Calm Calm - N/A   Overcast
6:55 AM 23.0°F 19.9°F 88% 30.17 in 10.0 miles Calm Calm - N/A   Mostly Cloudy
7:05 AM 21.2°F 19.4°F 93% 30.10 in 10.0 miles Calm Calm - N/A   Mostly Cloudy
7:55 AM 21.0°F 18.0°F 88% 30.15 in 7.0 miles NE 3.5 mph - N/A   Clear
8:17 AM 21.2°F 17.6°F 86% 30.11 in 8.0 miles Calm Calm - N/A   Scattered Clouds
8:55 AM 24.1°F 21.0°F 88% 30.15 in 10.0 miles Calm Calm - N/A   Mostly Cloudy
9:55 AM 24.1°F 19.9°F 84% 30.16 in 10.0 miles Calm Calm - N/A   Mostly Cloudy
11:55 AM 28.0°F 21.9°F 78% 30.12 in 10.0 miles Calm Calm - N/A   Overcast
12:55 PM 28.9°F 21.0°F 72% 30.09 in 10.0 miles Calm Calm - N/A   Scattered Clouds
1:55 PM 28.9°F 21.9°F 75% 30.07 in 10.0 miles Calm Calm - N/A   Mostly Cloudy
2:55 PM 28.9°F 21.9°F 75% 30.06 in 10.0 miles Calm Calm - N/A   Overcast
3:55 PM 30.0°F 21.9°F 72% 30.04 in 10.0 miles Calm Calm - N/A   Overcast
4:55 PM 30.0°F 23.0°F 75% 30.03 in 10.0 miles Calm Calm - 0.00 in   Overcast
5:55 PM 28.9°F 23.0°F 78% 30.02 in 10.0 miles Calm Calm - 0.00 in   Mostly Cloudy
6:55 PM 28.0°F 23.0°F 81% 30.02 in 10.0 miles NW 3.5 mph - N/A   Mostly Cloudy
7:55 PM 28.0°F 21.9°F 78% 30.02 in 10.0 miles NNW 3.5 mph - N/A   Overcast
8:55 PM 27.0°F 21.9°F 81% 30.00 in 10.0 miles WNW 4.6 mph - N/A   Partly Cloudy
9:55 PM 25.0°F 21.0°F 85% 30.00 in 10.0 miles Calm Calm - N/A   Clear
10:45 PM 24.8°F 21.2°F 86% 29.96 in 10.0 miles WNW 3.5 mph - N/A   Mostly Cloudy
10:55 PM 26.1°F 21.9°F 84% 30.00 in 10.0 miles NW 4.6 mph - N/A   Mostly Cloudy
11:55 PM 25.0°F 21.0°F 85% 30.00 in 10.0 miles Calm Calm - N/A   Overcast
Moon Phase
Jan. 25 Jan. 26 Feb. 03 Feb. 10 Feb. 17
Sunrise:07:34 AM (PST) Moon Rise:03:54 PM (PST)1/25
Sunset:04:52 PM (PST) Moon Set:06:18 AM (PST)1/25

Copyright © 2014 The Weather Underground, Inc.